TimeCST,TemperatureF,Dew PointF,Humidity,Sea Level PressureIn,VisibilityMPH,Wind Direction,Wind SpeedMPH,Gust SpeedMPH,PrecipitationIn,Events,Conditions,WindDirDegrees,DateUTC
12:53 AM,21.9,16.0,78,30.04,10.0,Calm,Calm,-,N/A,,Clear,0,2012-12-04 06:53:00
1:53 AM,21.0,16.0,81,30.05,10.0,WSW,8.1,-,N/A,,Clear,250,2012-12-04 07:53:00
2:53 AM,21.0,16.0,81,30.09,10.0,Calm,Calm,-,N/A,,Clear,0,2012-12-04 08:53:00
3:53 AM,19.0,16.0,88,30.13,10.0,Calm,Calm,-,N/A,,Clear,0,2012-12-04 09:53:00
4:53 AM,19.0,14.0,81,30.13,10.0,Calm,Calm,-,N/A,,Clear,0,2012-12-04 10:53:00
5:53 AM,19.0,15.1,85,30.18,10.0,NE,5.8,-,N/A,,Clear,40,2012-12-04 11:53:00
6:53 AM,19.0,15.1,85,30.22,10.0,NNE,4.6,-,N/A,,Clear,30,2012-12-04 12:53:00
7:53 AM,17.1,12.9,84,30.27,10.0,North,3.5,-,N/A,,Clear,360,2012-12-04 13:53:00
8:53 AM,21.9,16.0,78,30.30,10.0,Calm,Calm,-,N/A,,Clear,0,2012-12-04 14:53:00
9:53 AM,24.1,16.0,71,30.31,10.0,North,6.9,-,N/A,,Clear,10,2012-12-04 15:53:00
10:53 AM,26.1,14.0,60,30.34,10.0,North,11.5,-,N/A,,Clear,10,2012-12-04 16:53:00
11:53 AM,28.0,15.1,58,30.34,10.0,North,9.2,-,N/A,,Clear,350,2012-12-04 17:53:00
12:53 PM,28.9,15.1,56,30.32,10.0,North,8.1,-,N/A,,Clear,10,2012-12-04 18:53:00
1:53 PM,30.9,15.1,52,30.32,10.0,NE,5.8,-,N/A,,Clear,40,2012-12-04 19:53:00
2:53 PM,30.9,15.1,52,30.32,10.0,North,4.6,-,N/A,,Clear,10,2012-12-04 20:53:00
3:53 PM,28.9,15.1,56,30.34,10.0,NE,5.8,-,N/A,,Clear,50,2012-12-04 21:53:00
4:53 PM,25.0,14.0,63,30.35,10.0,ENE,5.8,-,N/A,,Clear,60,2012-12-04 22:53:00
5:53 PM,24.1,14.0,65,30.35,10.0,ENE,5.8,-,N/A,,Clear,70,2012-12-04 23:53:00
6:53 PM,19.9,10.9,68,30.34,9.0,ENE,6.9,-,N/A,,Clear,70,2012-12-05 00:53:00
7:53 PM,18.0,10.0,71,30.35,10.0,ENE,6.9,-,N/A,,Clear,70,2012-12-05 01:53:00
8:53 PM,21.9,12.0,66,30.35,10.0,East,10.4,-,N/A,,Clear,80,2012-12-05 02:53:00
9:53 PM,21.9,12.9,68,30.35,10.0,East,9.2,-,N/A,,Clear,80,2012-12-05 03:53:00
10:53 PM,19.9,12.9,74,30.35,10.0,East,8.1,-,N/A,,Clear,90,2012-12-05 04:53:00
11:53 PM,19.9,12.9,74,30.32,10.0,East,5.8,-,N/A,,Clear,90,2012-12-05 05:53:00